NOZ1087 EYPA-ENGM

Flight info

Callsign NOZ1087
Flight time 1h 13m
Altitude 38000
Route TIRIN M996 GELDA DCT EBURI N623 ESEBA
Aircraft B38M/M-SDE2E3GHIJ1LRWXY/LB2

Departure

Time 2026-05-06 18:59
Airport Palanga International Airport (EYPA)

Arrival

Time 2026-05-06 20:12
Airport Oslo-Gardermoen International Airport (ENGM)
Time Latitude Longitude Altitude Speed Heading
2026-05-06 18:11 55.97010 21.09634 41 ft 0 kts 287°
2026-05-06 18:48 55.97013 21.09614 41 ft 5 kts 287°
2026-05-06 18:48 55.97043 21.09563 41 ft 8 kts 345°
2026-05-06 18:49 55.97078 21.09533 41 ft 4 kts 297°
2026-05-06 18:49 55.97095 21.09447 41 ft 12 kts 288°
2026-05-06 18:49 55.97070 21.09287 41 ft 17 kts 199°
2026-05-06 18:49 55.96928 21.09228 41 ft 26 kts 193°
2026-05-06 18:50 55.96714 21.09140 41 ft 35 kts 193°
2026-05-06 18:50 55.96465 21.09045 41 ft 34 kts 186°
2026-05-06 18:50 55.96334 21.09053 41 ft 10 kts 199°
2026-05-06 18:50 55.96332 21.08991 41 ft 6 kts 336°
2026-05-06 18:51 55.96446 21.09033 41 ft 45 kts 13°
2026-05-06 18:51 55.96897 21.09218 41 ft 60 kts 13°
2026-05-06 18:51 55.97099 21.09314 41 ft 13 kts 53°
2026-05-06 18:51 55.97090 21.09490 41 ft 15 kts 102°
2026-05-06 18:52 55.97027 21.09541 41 ft 12 kts 196°
2026-05-06 18:52 55.96980 21.09562 41 ft 7 kts 105°
2026-05-06 18:52 55.96977 21.09646 41 ft 6 kts 42°
2026-05-06 18:52 55.97007 21.09645 41 ft 1 kts 304°
2026-05-06 18:53 55.97008 21.09639 41 ft 0 kts 288°
2026-05-06 18:57 55.97030 21.09584 41 ft 12 kts 333°
2026-05-06 18:57 55.97096 21.09448 41 ft 18 kts 284°
2026-05-06 18:57 55.97036 21.09271 41 ft 21 kts 195°
2026-05-06 18:57 55.96857 21.09198 41 ft 33 kts 193°
2026-05-06 18:58 55.96592 21.09092 41 ft 43 kts 192°
2026-05-06 18:58 55.96373 21.09055 39 ft 20 kts 173°
2026-05-06 18:58 55.96348 21.09002 39 ft 4 kts 326°
2026-05-06 18:58 55.96443 21.09028 41 ft 32 kts 15°
2026-05-06 18:59 55.96920 21.09223 41 ft 106 kts 12°
2026-05-06 18:59 55.97808 21.09576 226 ft 143 kts 15°
2026-05-06 18:59 55.98795 21.09988 1039 ft 144 kts 16°
2026-05-06 18:59 55.99732 21.10379 1971 ft 140 kts 21°
2026-05-06 19:00 56.00769 21.10755 2502 ft 168 kts 16°
2026-05-06 19:00 56.02049 21.10339 2999 ft 216 kts 336°
2026-05-06 19:00 56.03074 21.08153 3691 ft 243 kts 289°
2026-05-06 19:00 56.03203 21.06213 4517 ft 236 kts 261°
2026-05-06 19:01 56.02550 21.02600 6126 ft 224 kts 248°
2026-05-06 19:01 56.02079 20.99983 7374 ft 218 kts 249°
2026-05-06 19:01 56.01661 20.97423 8698 ft 219 kts 250°
2026-05-06 19:01 56.01263 20.94771 9899 ft 223 kts 251°
2026-05-06 19:02 56.01185 20.91872 10725 ft 251 kts 276°
2026-05-06 19:02 56.01910 20.88850 11452 ft 280 kts 296°
2026-05-06 19:02 56.02980 20.85754 12273 ft 296 kts 296°
2026-05-06 19:02 56.04057 20.82587 13165 ft 308 kts 296°
2026-05-06 19:03 56.05189 20.79280 14105 ft 315 kts 296°
2026-05-06 19:03 56.06350 20.75933 15080 ft 319 kts 300°
2026-05-06 19:03 56.07942 20.73070 16037 ft 331 kts 317°
2026-05-06 19:03 56.09758 20.70498 16952 ft 335 kts 316°
2026-05-06 19:04 56.11584 20.67853 17861 ft 339 kts 316°
2026-05-06 19:04 56.13434 20.65186 18676 ft 344 kts 316°
2026-05-06 19:04 56.15310 20.62486 19438 ft 347 kts 316°
2026-05-06 19:04 56.17206 20.59758 20188 ft 351 kts 316°
2026-05-06 19:05 56.19121 20.56999 20934 ft 355 kts 316°
2026-05-06 19:05 56.21058 20.54204 21690 ft 359 kts 316°
2026-05-06 19:05 56.23021 20.51371 22329 ft 366 kts 316°
2026-05-06 19:05 56.25018 20.48483 23018 ft 370 kts 316°
2026-05-06 19:06 56.27034 20.45564 23704 ft 374 kts 316°
2026-05-06 19:06 56.29069 20.42615 24363 ft 376 kts 316°
2026-05-06 19:06 56.31111 20.39649 25028 ft 379 kts 317°
2026-05-06 19:06 56.33169 20.36656 25621 ft 382 kts 317°
2026-05-06 19:07 56.35246 20.33632 26231 ft 385 kts 317°
2026-05-06 19:07 56.36627 20.31618 26628 ft 387 kts 317°
2026-05-06 19:07 56.39445 20.27504 27407 ft 392 kts 317°
2026-05-06 19:07 56.41571 20.24396 27976 ft 395 kts 317°
2026-05-06 19:08 56.43712 20.21263 28544 ft 398 kts 317°
2026-05-06 19:08 56.45871 20.18101 29095 ft 401 kts 317°
2026-05-06 19:08 56.48047 20.14910 29619 ft 404 kts 317°
2026-05-06 19:08 56.50241 20.11688 30139 ft 407 kts 317°
2026-05-06 19:09 56.52445 20.08441 30588 ft 410 kts 317°
2026-05-06 19:09 56.54667 20.05162 31030 ft 413 kts 317°
2026-05-06 19:09 56.56901 20.01863 31496 ft 415 kts 317°
2026-05-06 19:09 56.59145 19.98541 31963 ft 418 kts 317°
2026-05-06 19:10 56.61406 19.95190 32314 ft 422 kts 316°
2026-05-06 19:10 56.63688 19.91802 32720 ft 425 kts 316°
2026-05-06 19:10 56.65984 19.88388 33145 ft 428 kts 316°
2026-05-06 19:10 56.68293 19.84948 33539 ft 431 kts 316°
2026-05-06 19:11 56.70620 19.81475 33929 ft 434 kts 316°
2026-05-06 19:11 56.72958 19.77982 34311 ft 435 kts 316°
2026-05-06 19:11 56.75294 19.74486 34749 ft 435 kts 316°
2026-05-06 19:11 56.77597 19.71034 35187 ft 434 kts 316°
2026-05-06 19:12 56.79926 19.67536 35632 ft 434 kts 316°
2026-05-06 19:12 56.82255 19.64033 36083 ft 433 kts 316°
2026-05-06 19:12 56.84579 19.60532 36493 ft 433 kts 316°
2026-05-06 19:12 56.86907 19.57027 36905 ft 434 kts 316°
2026-05-06 19:13 56.89242 19.53536 37311 ft 433 kts 316°
2026-05-06 19:13 56.91573 19.50043 37712 ft 433 kts 316°
2026-05-06 19:13 56.93907 19.46539 37972 ft 435 kts 316°
2026-05-06 19:14 56.98569 19.39521 37979 ft 432 kts 315°
2026-05-06 19:14 57.03210 19.32511 37957 ft 432 kts 315°
2026-05-06 19:15 57.07842 19.25492 37959 ft 432 kts 315°
2026-05-06 19:15 57.11694 19.19637 37980 ft 432 kts 315°
2026-05-06 19:16 57.16320 19.12583 37972 ft 432 kts 315°
2026-05-06 19:16 57.20941 19.05513 37977 ft 432 kts 315°
2026-05-06 19:17 57.25559 18.98424 37977 ft 432 kts 315°
2026-05-06 19:17 57.30173 18.91318 37980 ft 432 kts 315°
2026-05-06 19:18 57.34784 18.84192 37985 ft 432 kts 315°
2026-05-06 19:18 57.39354 18.77106 37992 ft 431 kts 315°
2026-05-06 19:19 57.43942 18.69967 37988 ft 430 kts 315°
2026-05-06 19:19 57.48528 18.62808 37986 ft 431 kts 315°
2026-05-06 19:20 57.53109 18.55632 37991 ft 431 kts 315°
2026-05-06 19:20 57.57687 18.48435 37998 ft 431 kts 315°
2026-05-06 19:21 57.62259 18.41224 37990 ft 430 kts 314°
2026-05-06 19:21 57.66829 18.33992 37995 ft 431 kts 314°
2026-05-06 19:22 57.71394 18.26743 38019 ft 431 kts 314°
2026-05-06 19:22 57.75951 18.19482 37993 ft 430 kts 314°
2026-05-06 19:23 57.80500 18.12209 37997 ft 430 kts 314°
2026-05-06 19:23 57.85047 18.04912 37994 ft 430 kts 314°
2026-05-06 19:24 57.89589 17.97600 37992 ft 430 kts 314°
2026-05-06 19:24 57.94127 17.90268 37996 ft 430 kts 314°
2026-05-06 19:25 57.98628 17.82971 38000 ft 430 kts 314°
2026-05-06 19:25 58.03155 17.75608 37998 ft 430 kts 314°
2026-05-06 19:26 58.07677 17.68225 37998 ft 430 kts 314°
2026-05-06 19:26 58.12192 17.60829 38004 ft 429 kts 313°
2026-05-06 19:27 58.16696 17.53425 38002 ft 429 kts 313°
2026-05-06 19:27 58.21197 17.46000 38013 ft 429 kts 313°
2026-05-06 19:28 58.25686 17.38570 37996 ft 428 kts 313°
2026-05-06 19:28 58.30169 17.31123 37994 ft 428 kts 313°
2026-05-06 19:29 58.34649 17.23653 37991 ft 428 kts 313°
2026-05-06 19:29 58.39121 17.16173 38001 ft 428 kts 313°
2026-05-06 19:30 58.43589 17.08674 37994 ft 428 kts 313°
2026-05-06 19:30 58.48022 17.01205 38030 ft 428 kts 313°
2026-05-06 19:31 58.52468 16.93689 37992 ft 426 kts 313°
2026-05-06 19:31 58.59129 16.82379 37993 ft 427 kts 313°
2026-05-06 19:32 58.63566 16.74812 37993 ft 427 kts 312°
2026-05-06 19:32 58.67995 16.67231 37989 ft 426 kts 312°
2026-05-06 19:33 58.72419 16.59633 37994 ft 426 kts 312°
2026-05-06 19:33 58.76837 16.52016 37992 ft 426 kts 312°
2026-05-06 19:34 58.81242 16.44397 37990 ft 426 kts 312°
2026-05-06 19:34 58.85645 16.36753 38014 ft 426 kts 312°
2026-05-06 19:35 58.90042 16.29091 37984 ft 425 kts 312°
2026-05-06 19:35 58.94434 16.21412 37979 ft 426 kts 312°
2026-05-06 19:36 58.98821 16.13713 37976 ft 425 kts 312°
2026-05-06 19:36 59.03203 16.05996 37974 ft 426 kts 312°
2026-05-06 19:37 59.07600 15.98225 37975 ft 428 kts 312°
2026-05-06 19:37 59.11993 15.90431 37977 ft 427 kts 312°
2026-05-06 19:38 59.16381 15.82619 37970 ft 427 kts 311°
2026-05-06 19:38 59.20761 15.74794 37971 ft 427 kts 311°
2026-05-06 19:39 59.25138 15.66944 37974 ft 427 kts 311°
2026-05-06 19:39 59.29506 15.59081 37995 ft 426 kts 311°
2026-05-06 19:40 59.33806 15.51315 37955 ft 422 kts 311°
2026-05-06 19:40 59.38147 15.43444 37950 ft 422 kts 311°
2026-05-06 19:41 59.42428 15.35655 37946 ft 422 kts 311°
2026-05-06 19:41 59.46731 15.27797 37950 ft 422 kts 311°
2026-05-06 19:42 59.51030 15.19919 37948 ft 422 kts 311°
2026-05-06 19:42 59.55326 15.12023 37971 ft 422 kts 311°
2026-05-06 19:43 59.59624 15.04096 37955 ft 424 kts 311°
2026-05-06 19:43 59.63922 14.96140 37948 ft 421 kts 310°
2026-05-06 19:44 59.68172 14.88247 37940 ft 418 kts 310°
2026-05-06 19:44 59.72405 14.80356 37942 ft 418 kts 310°
2026-05-06 19:45 59.76633 14.72446 37942 ft 418 kts 310°
2026-05-06 19:45 59.81191 14.65175 37951 ft 423 kts 316°
2026-05-06 19:46 59.83140 14.61029 37924 ft 402 kts 294°
2026-05-06 19:46 59.84102 14.55944 37965 ft 391 kts 275°
2026-05-06 19:46 59.84162 14.50609 37922 ft 385 kts 258°
2026-05-06 19:46 59.83600 14.45407 37955 ft 387 kts 257°
2026-05-06 19:47 59.83292 14.40076 37937 ft 390 kts 268°
2026-05-06 19:47 59.83536 14.34674 37944 ft 394 kts 273°
2026-05-06 19:47 59.84362 14.23873 37947 ft 396 kts 276°
2026-05-06 19:48 59.85362 14.13098 37938 ft 397 kts 276°
2026-05-06 19:48 59.86405 14.02319 37937 ft 396 kts 277°
2026-05-06 19:49 59.87453 13.91549 37951 ft 397 kts 277°
2026-05-06 19:49 59.88487 13.80835 37942 ft 397 kts 277°
2026-05-06 19:50 59.89520 13.70039 37936 ft 397 kts 277°
2026-05-06 19:50 59.90543 13.59244 37939 ft 396 kts 276°
2026-05-06 19:51 59.91556 13.48467 37878 ft 389 kts 276°
2026-05-06 19:51 59.92045 13.43217 36996 ft 385 kts 276°
2026-05-06 19:51 59.92534 13.37976 35997 ft 385 kts 276°
2026-05-06 19:52 59.93022 13.32698 34732 ft 390 kts 276°
2026-05-06 19:52 59.93514 13.27361 33519 ft 392 kts 276°
2026-05-06 19:52 59.94004 13.21998 32066 ft 394 kts 275°
2026-05-06 19:52 59.94492 13.16634 30665 ft 392 kts 274°
2026-05-06 19:53 59.94974 13.11289 29129 ft 390 kts 274°
2026-05-06 19:53 59.95457 13.05971 27349 ft 390 kts 275°
2026-05-06 19:53 59.95939 13.00632 25589 ft 391 kts 276°
2026-05-06 19:53 59.96414 12.95320 24179 ft 386 kts 276°
2026-05-06 19:54 59.96876 12.90120 23006 ft 374 kts 276°
2026-05-06 19:54 59.97329 12.84991 21779 ft 377 kts 277°
2026-05-06 19:54 59.97780 12.79877 21019 ft 371 kts 277°
2026-05-06 19:54 59.98225 12.74845 20307 ft 366 kts 277°
2026-05-06 19:55 59.98656 12.69871 19546 ft 362 kts 276°
2026-05-06 19:55 59.99081 12.64923 18820 ft 360 kts 277°
2026-05-06 19:55 59.99503 12.60015 18097 ft 357 kts 277°
2026-05-06 19:55 59.99921 12.55137 17304 ft 355 kts 277°
2026-05-06 19:56 60.00335 12.50286 16538 ft 353 kts 277°
2026-05-06 19:56 60.00746 12.45459 15790 ft 352 kts 277°
2026-05-06 19:56 60.01266 12.40696 15077 ft 354 kts 287°
2026-05-06 19:56 60.02609 12.36587 14653 ft 357 kts 310°
2026-05-06 19:57 60.04487 12.33410 14316 ft 348 kts 314°
2026-05-06 19:57 60.06283 12.30260 13993 ft 339 kts 313°
2026-05-06 19:57 60.08022 12.27176 13727 ft 329 kts 313°
2026-05-06 19:57 60.09540 12.23905 13445 ft 312 kts 297°
2026-05-06 19:58 60.10284 12.20001 13274 ft 292 kts 277°
2026-05-06 19:58 60.10409 12.16048 13100 ft 278 kts 264°
2026-05-06 19:58 60.10090 12.12311 12937 ft 267 kts 252°
2026-05-06 19:58 60.09492 12.08874 12785 ft 256 kts 250°
2026-05-06 19:59 60.08912 12.05537 12475 ft 253 kts 250°
2026-05-06 19:59 60.08338 12.02204 12123 ft 252 kts 250°
2026-05-06 19:59 60.07766 11.98862 11674 ft 254 kts 250°
2026-05-06 19:59 60.07193 11.95507 11282 ft 255 kts 250°
2026-05-06 20:00 60.06620 11.92148 10912 ft 255 kts 250°
2026-05-06 20:00 60.06046 11.88787 10581 ft 254 kts 250°
2026-05-06 20:00 60.05465 11.85445 10459 ft 255 kts 249°
2026-05-06 20:00 60.04860 11.82108 10207 ft 255 kts 249°
2026-05-06 20:01 60.04274 11.78750 9850 ft 256 kts 251°
2026-05-06 20:01 60.03716 11.75361 9452 ft 257 kts 250°
2026-05-06 20:01 60.03149 11.71982 9078 ft 256 kts 250°
2026-05-06 20:01 60.02577 11.68618 8770 ft 254 kts 250°
2026-05-06 20:02 60.02003 11.65265 8553 ft 255 kts 250°
2026-05-06 20:02 60.01425 11.61909 8332 ft 255 kts 250°
2026-05-06 20:02 60.01041 11.59689 8188 ft 255 kts 250°
2026-05-06 20:02 60.00271 11.55250 7910 ft 255 kts 251°
2026-05-06 20:03 59.99689 11.51902 7685 ft 255 kts 251°
2026-05-06 20:03 59.99106 11.48555 7473 ft 255 kts 251°
2026-05-06 20:03 59.98523 11.45214 7258 ft 255 kts 251°
2026-05-06 20:03 59.97939 11.41874 7063 ft 254 kts 251°
2026-05-06 20:04 59.97355 11.38541 6868 ft 254 kts 251°
2026-05-06 20:04 59.96962 11.36297 6723 ft 252 kts 251°
2026-05-06 20:04 59.96381 11.32987 6389 ft 253 kts 252°
2026-05-06 20:04 59.95797 11.29674 6028 ft 253 kts 251°
2026-05-06 20:05 59.95216 11.26381 5869 ft 251 kts 251°
2026-05-06 20:05 59.94634 11.23086 5801 ft 253 kts 251°
2026-05-06 20:05 59.94053 11.19796 5711 ft 249 kts 251°
2026-05-06 20:05 59.93483 11.16584 5544 ft 243 kts 251°
2026-05-06 20:06 59.93058 11.13459 5338 ft 232 kts 268°
2026-05-06 20:06 59.93416 11.10417 5165 ft 225 kts 299°
2026-05-06 20:06 59.94382 11.08038 5031 ft 218 kts 313°
2026-05-06 20:06 59.95409 11.05879 4899 ft 211 kts 313°
2026-05-06 20:07 59.96410 11.03805 4758 ft 205 kts 313°
2026-05-06 20:07 59.97407 11.01803 4583 ft 203 kts 319°
2026-05-06 20:07 59.98677 11.00657 4385 ft 203 kts 352°
2026-05-06 20:07 60.00084 11.00818 4243 ft 205 kts
2026-05-06 20:08 60.01475 11.01516 4011 ft 207 kts 14°
2026-05-06 20:08 60.02856 11.02324 3772 ft 206 kts 14°
2026-05-06 20:08 60.04206 11.03103 3536 ft 199 kts 14°
2026-05-06 20:08 60.05517 11.03856 3264 ft 191 kts 14°
2026-05-06 20:09 60.06762 11.04568 2994 ft 181 kts 13°
2026-05-06 20:09 60.07946 11.05249 2742 ft 173 kts 13°
2026-05-06 20:09 60.09079 11.05899 2504 ft 166 kts 13°
2026-05-06 20:09 60.10188 11.06535 2277 ft 165 kts 13°
2026-05-06 20:10 60.11253 11.07146 2059 ft 152 kts 13°
2026-05-06 20:10 60.12235 11.07711 1876 ft 142 kts 13°
2026-05-06 20:10 60.13171 11.08259 1654 ft 139 kts 13°
2026-05-06 20:10 60.14098 11.08783 1453 ft 138 kts 13°
2026-05-06 20:11 60.15021 11.09301 1247 ft 137 kts 14°
2026-05-06 20:11 60.15925 11.09833 1053 ft 134 kts 15°
2026-05-06 20:11 60.16812 11.10339 879 ft 133 kts 14°
2026-05-06 20:11 60.17691 11.10845 698 ft 130 kts 15°
2026-05-06 20:12 60.18436 11.11275 683 ft 82 kts 17°
2026-05-06 20:12 60.18826 11.11501 687 ft 51 kts 16°
2026-05-06 20:12 60.19164 11.11682 684 ft 50 kts
2026-05-06 20:12 60.19351 11.11633 685 ft 14 kts 317°
2026-05-06 20:13 60.19388 11.11460 684 ft 14 kts 287°
2026-05-06 20:13 60.19392 11.11277 680 ft 11 kts 223°
2026-05-06 20:13 60.19312 11.11220 684 ft 14 kts 194°
2026-05-06 20:13 60.19203 11.11158 687 ft 18 kts 198°
2026-05-06 20:14 60.19181 11.11002 681 ft 15 kts 289°
2026-05-06 20:14 60.19214 11.10784 684 ft 18 kts 286°
2026-05-06 20:14 60.19252 11.10519 681 ft 20 kts 286°
2026-05-06 20:14 60.19287 11.10327 686 ft 6 kts 328°
2026-05-06 20:15 60.19316 11.10333 688 ft 4 kts 17°
2026-05-06 20:15 60.19330 11.10342 688 ft 0 kts 16°
2026-05-06 20:15 60.19331 11.10342 688 ft 0 kts 16°